Location: ???????
(55.4362°N, 38.1183°E)
Time: 01:22:31
(UTC+00:00)

METEOR M2 - Pass Details

Date: 06 December 2021
Orbit: 818 x 827 km, 98.4° (Epoch: 28 January)

Event Time Altitude Azimuth Distance (km) Brightness Sun altitude
Rises 13:41:12 0° 107° (ESE) 3,364 ? -5.7°
Reaches altitude 10° 13:44:14 10° 90° (E) 2,433 ? -6.1°
Maximum altitude 13:47:47 18° 48° (NE) 1,913 ? -6.5°
Drops below altitude 10° 13:51:21 10° 7° (N) 2,438 ? -7.0°
Sets 13:54:23 0° 349° (N) 3,374 ? -7.3°
